Terminal Aerodrome Forecast
Issued by NWS Duluth, MN

Home | Current Version | Previous Version | Text Only | Print | Product List | Glossary On
Versions: 1 2 3 4 5 6 7 8 9 10 11 12 13 14 15 16 17 18 19 20 21 22 23 24 25 26
000
FTUS43 KDLH 231100 RRA
TAFINL
TAF
KINL 231144Z 2312/2412 00000KT 1SM BR SCT060
      TEMPO 2312/2313 1/4SM FG OVC003
     FM231400 09005KT P6SM BKN060
     FM231800 08007KT P6SM VCSH SCT060
     FM240100 11010KT P6SM VCSH SCT050 BKN120
     FM240700 11011KT P6SM VCSH BKN015 OVC040=

USA.gov is the U.S. government's official web portal to all federal, state and local government web resources and services.